Zurück zum Katalog

STARLINK-34119

AktivKommunikationVLEO
NORAD 63895·PAYLOAD·🇺🇸 United States

Gestartet May 10, 2025 von Cape Canaveral Space Force Station

Loading…

Nächste Überflüge (nächste 24 Stunden)

TLE

AktuellSource: CelesTrak SupGP

Epoche: Sep 14, 2026, 21:41 UTC

1 63895C 25095F   26257.90395833 -.00002992  00000+0 -10836-3 0  2575
2 63895  43.0006 187.8870 0000925 255.6674  73.1120 15.27580780    14

Verfolge STARLINK-34119 in Echtzeit mit AllMySat

Download on the App Store